Time,TemperatureF,DewpointF,PressureIn,WindDirection,WindDirectionDegrees,WindSpeedMPH,WindSpeedGustMPH,Humidity,HourlyPrecipIn,Conditions,Clouds,dailyrainin,SoftwareType,DateUTC
2013-04-30 00:02:00,67.0,57.0,29.69,East,90,2.0,8.0,70,0.00,,,0.00,,2013-04-30 05:02:00,
2013-04-30 00:12:00,67.0,57.0,29.69,East,90,2.0,8.0,70,0.00,,,0.00,,2013-04-30 05:12:00,
2013-04-30 00:22:00,66.0,56.0,29.69,SE,140,3.0,6.0,71,0.00,,,0.00,,2013-04-30 05:22:00,
2013-04-30 00:31:00,66.0,56.0,29.68,SE,134,2.0,8.0,71,0.00,,,0.00,,2013-04-30 05:31:00,
2013-04-30 00:42:00,66.0,56.0,29.68,SE,134,2.0,8.0,71,0.00,,,0.00,,2013-04-30 05:42:00,
2013-04-30 00:51:00,66.0,57.0,29.68,ENE,71,2.0,5.0,72,0.00,,,0.00,,2013-04-30 05:51:00,
2013-04-30 01:01:00,66.0,57.0,29.67,SSW,202,2.0,5.0,72,0.00,,,0.00,,2013-04-30 06:01:00,
2013-04-30 01:12:00,66.0,57.0,29.67,SE,132,1.0,7.0,72,0.00,,,0.00,,2013-04-30 06:12:00,
2013-04-30 01:21:00,66.0,57.0,29.67,SE,132,1.0,7.0,72,0.00,,,0.00,,2013-04-30 06:21:00,
2013-04-30 01:31:00,65.0,56.0,29.67,SE,144,1.0,6.0,72,0.00,,,0.00,,2013-04-30 06:31:00,
2013-04-30 01:41:00,65.0,56.0,29.67,SE,144,1.0,6.0,72,0.00,,,0.00,,2013-04-30 06:41:00,
2013-04-30 01:52:00,65.0,56.0,29.67,SSE,163,2.0,6.0,73,0.00,,,0.00,,2013-04-30 06:52:00,
2013-04-30 02:01:00,65.0,56.0,29.67,SE,130,2.0,5.0,73,0.00,,,0.00,,2013-04-30 07:01:00,
2013-04-30 02:11:00,65.0,56.0,29.67,SE,130,2.0,5.0,73,0.00,,,0.00,,2013-04-30 07:11:00,
2013-04-30 02:21:00,65.0,56.0,29.67,South,170,3.0,8.0,73,0.00,,,0.00,,2013-04-30 07:21:00,
2013-04-30 02:31:00,66.0,57.0,29.66,SSW,207,1.0,7.0,73,0.00,,,0.00,,2013-04-30 07:31:00,
2013-04-30 02:41:00,66.0,57.0,29.66,SSW,207,1.0,7.0,73,0.00,,,0.00,,2013-04-30 07:41:00,
2013-04-30 02:52:00,66.0,57.0,29.66,SSW,192,1.0,4.0,73,0.00,,,0.00,,2013-04-30 07:52:00,
2013-04-30 03:02:00,66.0,57.0,29.67,SE,130,2.0,6.0,72,0.00,,,0.00,,2013-04-30 08:02:00,
2013-04-30 03:11:00,66.0,57.0,29.67,SE,130,2.0,6.0,72,0.00,,,0.00,,2013-04-30 08:11:00,
2013-04-30 03:21:00,66.0,57.0,29.68,SSW,199,2.0,5.0,73,0.00,,,0.00,,2013-04-30 08:21:00,
2013-04-30 03:32:00,66.0,57.0,29.68,SW,216,2.0,9.0,72,0.00,,,0.00,,2013-04-30 08:32:00,
2013-04-30 03:42:00,66.0,57.0,29.68,SW,216,2.0,9.0,72,0.00,,,0.00,,2013-04-30 08:42:00,
2013-04-30 03:52:00,66.0,57.0,29.69,South,191,3.0,7.0,72,0.00,,,0.00,,2013-04-30 08:52:00,
2013-04-30 04:01:00,66.0,57.0,29.69,SSE,155,2.0,7.0,72,0.00,,,0.00,,2013-04-30 09:01:00,
2013-04-30 04:11:00,66.0,57.0,29.69,SSE,155,2.0,7.0,72,0.00,,,0.00,,2013-04-30 09:11:00,
2013-04-30 04:22:00,66.0,57.0,29.69,SW,232,1.0,5.0,73,0.00,,,0.00,,2013-04-30 09:22:00,
2013-04-30 04:33:00,66.0,57.0,29.69,South,188,2.0,5.0,73,0.00,,,0.00,,2013-04-30 09:33:00,
2013-04-30 04:43:00,66.0,57.0,29.69,South,188,2.0,5.0,73,0.00,,,0.00,,2013-04-30 09:43:00,
2013-04-30 04:52:00,66.0,57.0,29.69,WNW,288,1.0,13.0,72,0.00,,,0.00,,2013-04-30 09:52:00,
2013-04-30 05:03:00,66.0,57.0,29.69,South,182,1.0,6.0,72,0.00,,,0.00,,2013-04-30 10:03:00,
2013-04-30 05:11:00,66.0,57.0,29.69,South,182,1.0,6.0,72,0.00,,,0.00,,2013-04-30 10:11:00,
2013-04-30 05:22:00,66.0,57.0,29.70,West,264,1.0,5.0,73,0.00,,,0.00,,2013-04-30 10:22:00,
2013-04-30 05:32:00,66.0,57.0,29.70,South,173,2.0,7.0,73,0.00,,,0.00,,2013-04-30 10:32:00,
2013-04-30 05:41:00,66.0,57.0,29.70,South,173,2.0,7.0,73,0.00,,,0.00,,2013-04-30 10:41:00,
2013-04-30 05:52:00,66.0,57.0,29.70,South,171,2.0,7.0,73,0.00,,,0.00,,2013-04-30 10:52:00,
2013-04-30 06:01:00,66.0,57.0,29.72,SSW,208,1.0,7.0,74,0.00,,,0.00,,2013-04-30 11:01:00,
2013-04-30 06:11:00,66.0,57.0,29.72,SSW,208,1.0,7.0,74,0.00,,,0.00,,2013-04-30 11:11:00,
2013-04-30 06:21:00,65.0,57.0,29.72,SW,226,4.0,7.0,75,0.00,,,0.00,,2013-04-30 11:21:00,
2013-04-30 06:31:00,65.0,57.0,29.72,SSE,147,1.0,6.0,75,0.00,,,0.00,,2013-04-30 11:31:00,
2013-04-30 06:42:00,65.0,57.0,29.72,SSE,147,1.0,6.0,75,0.00,,,0.00,,2013-04-30 11:42:00,
2013-04-30 06:51:00,65.0,57.0,29.73,SSE,162,2.0,6.0,76,0.00,,,0.00,,2013-04-30 11:51:00,
2013-04-30 07:01:00,65.0,57.0,29.74,WSW,243,2.0,7.0,75,0.00,,,0.00,,2013-04-30 12:01:00,
2013-04-30 07:11:00,65.0,57.0,29.74,WSW,243,2.0,7.0,75,0.00,,,0.00,,2013-04-30 12:11:00,
2013-04-30 07:21:00,65.0,57.0,29.74,SE,136,3.0,8.0,75,0.00,,,0.00,,2013-04-30 12:21:00,
2013-04-30 07:31:00,66.0,58.0,29.74,SW,234,3.0,7.0,75,0.00,,,0.00,,2013-04-30 12:31:00,
2013-04-30 07:41:00,66.0,58.0,29.74,SW,234,3.0,7.0,75,0.00,,,0.00,,2013-04-30 12:41:00,
2013-04-30 07:51:00,66.0,57.0,29.75,SE,128,4.0,10.0,74,0.00,,,0.00,,2013-04-30 12:51:00,
2013-04-30 08:01:00,67.0,58.0,29.74,WSW,252,1.0,11.0,74,0.00,,,0.00,,2013-04-30 13:01:00,
2013-04-30 08:11:00,67.0,58.0,29.74,WSW,252,1.0,11.0,74,0.00,,,0.00,,2013-04-30 13:11:00,
2013-04-30 08:21:00,68.0,58.0,29.73,WNW,292,4.0,8.0,71,0.00,,,0.00,,2013-04-30 13:21:00,
2013-04-30 08:31:00,69.0,59.0,29.73,WNW,291,2.0,9.0,70,0.00,,,0.00,,2013-04-30 13:31:00,
2013-04-30 08:41:00,69.0,59.0,29.73,WNW,291,2.0,9.0,70,0.00,,,0.00,,2013-04-30 13:41:00,
2013-04-30 08:52:00,69.0,58.0,29.74,East,80,3.0,7.0,68,0.00,,,0.00,,2013-04-30 13:52:00,
2013-04-30 09:02:00,70.0,58.0,29.74,NNE,12,3.0,13.0,66,0.00,,,0.00,,2013-04-30 14:02:00,
2013-04-30 09:11:00,71.0,59.0,29.74,West,271,3.0,12.0,65,0.00,,,0.00,,2013-04-30 14:11:00,
2013-04-30 09:21:00,71.0,59.0,29.74,West,271,3.0,12.0,65,0.00,,,0.00,,2013-04-30 14:21:00,
2013-04-30 09:31:00,73.0,58.0,29.73,SSW,192,5.0,10.0,59,0.00,,,0.00,,2013-04-30 14:31:00,
2013-04-30 09:41:00,73.0,58.0,29.73,SSW,192,5.0,10.0,59,0.00,,,0.00,,2013-04-30 14:41:00,
2013-04-30 09:52:00,74.0,56.0,29.73,SSW,198,5.0,12.0,53,0.00,,,0.00,,2013-04-30 14:52:00,
2013-04-30 10:01:00,76.0,54.0,29.74,West,273,6.0,16.0,47,0.00,,,0.00,,2013-04-30 15:01:00,
2013-04-30 10:11:00,76.0,54.0,29.74,West,273,6.0,16.0,47,0.00,,,0.00,,2013-04-30 15:11:00,
2013-04-30 10:21:00,77.0,55.0,29.74,SSW,208,3.0,13.0,46,0.00,,,0.00,,2013-04-30 15:21:00,
2013-04-30 10:32:00,78.0,53.0,29.74,SSW,203,6.0,14.0,42,0.00,,,0.00,,2013-04-30 15:32:00,
2013-04-30 10:42:00,78.0,53.0,29.74,SSW,203,6.0,14.0,42,0.00,,,0.00,,2013-04-30 15:42:00,
2013-04-30 10:52:00,78.0,51.0,29.74,South,176,7.0,18.0,39,0.00,,,0.00,,2013-04-30 15:52:00,
2013-04-30 11:02:00,79.0,51.0,29.75,NW,305,4.0,14.0,38,0.00,,,0.00,,2013-04-30 16:02:00,
2013-04-30 11:12:00,79.0,51.0,29.75,NW,305,4.0,14.0,38,0.00,,,0.00,,2013-04-30 16:12:00,
2013-04-30 11:23:00,79.0,51.0,29.75,East,83,6.0,19.0,38,0.00,,,0.00,,2013-04-30 16:23:00,
2013-04-30 11:33:00,80.0,51.0,29.75,SSW,200,5.0,19.0,37,0.00,,,0.00,,2013-04-30 16:33:00,
2013-04-30 11:42:00,80.0,51.0,29.75,SSW,200,5.0,19.0,37,0.00,,,0.00,,2013-04-30 16:42:00,
2013-04-30 11:52:00,82.0,48.0,29.74,WSW,240,6.0,15.0,31,0.00,,,0.00,,2013-04-30 16:52:00,
2013-04-30 12:02:00,83.0,48.0,29.75,WSW,252,7.0,17.0,30,0.00,,,0.00,,2013-04-30 17:02:00,
2013-04-30 12:12:00,83.0,48.0,29.75,WSW,252,7.0,17.0,30,0.00,,,0.00,,2013-04-30 17:12:00,
2013-04-30 12:22:00,83.0,50.0,29.75,WSW,247,6.0,13.0,32,0.00,,,0.00,,2013-04-30 17:22:00,
2013-04-30 12:32:00,83.0,47.0,29.75,SW,223,6.0,16.0,29,0.00,,,0.00,,2013-04-30 17:32:00,
2013-04-30 12:42:00,83.0,47.0,29.75,SW,223,6.0,16.0,29,0.00,,,0.00,,2013-04-30 17:42:00,
2013-04-30 12:52:00,84.0,50.0,29.75,SW,229,4.0,15.0,31,0.00,,,0.00,,2013-04-30 17:52:00,
2013-04-30 13:01:00,85.0,47.0,29.75,WSW,252,7.0,15.0,27,0.00,,,0.00,,2013-04-30 18:01:00,
2013-04-30 13:11:00,85.0,47.0,29.75,WSW,252,7.0,15.0,27,0.00,,,0.00,,2013-04-30 18:11:00,
2013-04-30 13:22:00,85.0,45.0,29.75,WNW,293,5.0,19.0,25,0.00,,,0.00,,2013-04-30 18:22:00,
2013-04-30 13:32:00,86.0,47.0,29.75,WSW,246,2.0,16.0,26,0.00,,,0.00,,2013-04-30 18:32:00,
2013-04-30 13:41:00,86.0,47.0,29.75,WSW,246,2.0,16.0,26,0.00,,,0.00,,2013-04-30 18:41:00,
2013-04-30 13:52:00,86.0,44.0,29.74,SW,217,5.0,18.0,23,0.00,,,0.00,,2013-04-30 18:52:00,
2013-04-30 14:01:00,88.0,47.0,29.74,SW,218,5.0,15.0,24,0.00,,,0.00,,2013-04-30 19:01:00,
2013-04-30 14:11:00,88.0,47.0,29.74,SW,218,5.0,15.0,24,0.00,,,0.00,,2013-04-30 19:11:00,
2013-04-30 14:22:00,87.0,47.0,29.74,SSE,148,6.0,17.0,25,0.00,,,0.00,,2013-04-30 19:22:00,
2013-04-30 14:32:00,87.0,44.0,29.75,SW,221,4.0,15.0,22,0.00,,,0.00,,2013-04-30 19:32:00,
2013-04-30 14:42:00,87.0,44.0,29.75,SW,221,4.0,15.0,22,0.00,,,0.00,,2013-04-30 19:42:00,
2013-04-30 14:52:00,87.0,46.0,29.75,SSW,211,6.0,15.0,24,0.00,,,0.00,,2013-04-30 19:52:00,
2013-04-30 15:02:00,88.0,44.0,29.74,SSW,208,5.0,16.0,22,0.00,,,0.00,,2013-04-30 20:02:00,
2013-04-30 15:11:00,88.0,44.0,29.74,SSW,208,5.0,16.0,22,0.00,,,0.00,,2013-04-30 20:11:00,
2013-04-30 15:21:00,87.0,42.0,29.74,WSW,240,6.0,17.0,21,0.00,,,0.00,,2013-04-30 20:21:00,
2013-04-30 15:32:00,87.0,44.0,29.73,WSW,248,6.0,15.0,22,0.00,,,0.00,,2013-04-30 20:32:00,
2013-04-30 15:42:00,87.0,44.0,29.73,WSW,248,6.0,15.0,22,0.00,,,0.00,,2013-04-30 20:42:00,
2013-04-30 15:52:00,88.0,44.0,29.74,WNW,284,5.0,14.0,22,0.00,,,0.00,,2013-04-30 20:52:00,
2013-04-30 16:01:00,88.0,47.0,29.74,SW,225,3.0,19.0,24,0.00,,,0.00,,2013-04-30 21:01:00,
2013-04-30 16:11:00,88.0,44.0,29.74,SSE,150,5.0,17.0,22,0.00,,,0.00,,2013-04-30 21:11:00,
2013-04-30 16:22:00,88.0,44.0,29.74,SSE,150,5.0,17.0,22,0.00,,,0.00,,2013-04-30 21:22:00,
2013-04-30 16:32:00,88.0,41.0,29.74,SW,231,5.0,11.0,19,0.00,,,0.00,,2013-04-30 21:32:00,
2013-04-30 16:42:00,88.0,41.0,29.74,SW,231,5.0,11.0,19,0.00,,,0.00,,2013-04-30 21:42:00,
2013-04-30 16:53:00,88.0,42.0,29.74,SSW,211,3.0,12.0,20,0.00,,,0.00,,2013-04-30 21:53:00,
2013-04-30 17:02:00,87.0,38.0,29.75,East,93,4.0,18.0,18,0.00,,,0.00,,2013-04-30 22:02:00,
2013-04-30 17:12:00,87.0,38.0,29.75,East,93,4.0,18.0,18,0.00,,,0.00,,2013-04-30 22:12:00,
2013-04-30 17:23:00,87.0,40.0,29.75,WSW,242,4.0,15.0,19,0.00,,,0.00,,2013-04-30 22:23:00,
2013-04-30 17:32:00,87.0,40.0,29.76,SW,217,3.0,13.0,19,0.00,,,0.00,,2013-04-30 22:32:00,
2013-04-30 17:41:00,87.0,40.0,29.76,SW,217,3.0,13.0,19,0.00,,,0.00,,2013-04-30 22:41:00,
2013-04-30 17:53:00,87.0,40.0,29.76,SW,225,6.0,12.0,19,0.00,,,0.00,,2013-04-30 22:53:00,
2013-04-30 18:02:00,86.0,43.0,29.77,South,180,3.0,12.0,22,0.00,,,0.00,,2013-04-30 23:02:00,
2013-04-30 18:12:00,86.0,43.0,29.77,South,180,3.0,12.0,22,0.00,,,0.00,,2013-04-30 23:12:00,
2013-04-30 18:22:00,86.0,43.0,29.77,South,181,6.0,11.0,22,0.00,,,0.00,,2013-04-30 23:22:00,
2013-04-30 18:32:00,85.0,42.0,29.78,South,182,4.0,9.0,22,0.00,,,0.00,,2013-04-30 23:32:00,
2013-04-30 18:42:00,85.0,42.0,29.78,South,182,4.0,9.0,22,0.00,,,0.00,,2013-04-30 23:42:00,
2013-04-30 18:52:00,84.0,41.0,29.78,West,263,3.0,8.0,22,0.00,,,0.00,,2013-04-30 23:52:00,
2013-04-30 19:02:00,84.0,43.0,29.79,WSW,253,5.0,10.0,24,0.00,,,0.00,,2013-05-01 00:02:00,
2013-04-30 19:11:00,84.0,43.0,29.79,WSW,253,5.0,10.0,24,0.00,,,0.00,,2013-05-01 00:11:00,
2013-04-30 19:21:00,83.0,42.0,29.79,East,85,2.0,7.0,24,0.00,,,0.00,,2013-05-01 00:21:00,
2013-04-30 19:32:00,83.0,46.0,29.79,WSW,253,0.0,6.0,27,0.00,,,0.00,,2013-05-01 00:32:00,
2013-04-30 19:42:00,83.0,46.0,29.79,WSW,253,0.0,6.0,27,0.00,,,0.00,,2013-05-01 00:42:00,
2013-04-30 19:52:00,82.0,45.0,29.79,SW,221,0.0,6.0,27,0.00,,,0.00,,2013-05-01 00:52:00,
2013-04-30 20:01:00,81.0,45.0,29.80,South,188,0.0,3.0,28,0.00,,,0.00,,2013-05-01 01:01:00,
2013-04-30 20:11:00,81.0,45.0,29.80,South,188,0.0,3.0,28,0.00,,,0.00,,2013-05-01 01:11:00,
2013-04-30 20:21:00,80.0,46.0,29.80,SE,142,0.0,2.0,30,0.00,,,0.00,,2013-05-01 01:21:00,
2013-04-30 20:31:00,79.0,47.0,29.80,South,170,0.0,0.0,33,0.00,,,0.00,,2013-05-01 01:31:00,
2013-04-30 20:41:00,79.0,47.0,29.80,South,170,0.0,0.0,33,0.00,,,0.00,,2013-05-01 01:41:00,
2013-04-30 20:52:00,77.0,47.0,29.80,South,170,0.0,1.0,35,0.00,,,0.00,,2013-05-01 01:52:00,
2013-04-30 21:02:00,75.0,48.0,29.82,South,170,0.0,0.0,39,0.00,,,0.00,,2013-05-01 02:02:00,
2013-04-30 21:11:00,75.0,48.0,29.82,South,170,0.0,0.0,39,0.00,,,0.00,,2013-05-01 02:11:00,
2013-04-30 21:21:00,73.0,50.0,29.82,South,170,0.0,0.0,44,0.00,,,0.00,,2013-05-01 02:21:00,
2013-04-30 21:32:00,72.0,51.0,29.83,South,170,0.0,0.0,47,0.00,,,0.00,,2013-05-01 02:32:00,
2013-04-30 21:42:00,72.0,51.0,29.83,South,170,0.0,0.0,47,0.00,,,0.00,,2013-05-01 02:42:00,
2013-04-30 21:52:00,70.0,50.0,29.84,South,170,0.0,2.0,49,0.00,,,0.00,,2013-05-01 02:52:00,
2013-04-30 22:01:00,70.0,50.0,29.84,South,170,0.0,2.0,50,0.00,,,0.00,,2013-05-01 03:01:00,
2013-04-30 22:11:00,70.0,50.0,29.84,South,170,0.0,2.0,50,0.00,,,0.00,,2013-05-01 03:11:00,
2013-04-30 22:21:00,70.0,50.0,29.84,ESE,113,1.0,3.0,49,0.00,,,0.00,,2013-05-01 03:21:00,
2013-04-30 22:33:00,71.0,51.0,29.84,SSE,153,0.0,4.0,49,0.00,,,0.00,,2013-05-01 03:33:00,
2013-04-30 22:43:00,71.0,51.0,29.84,SSE,153,0.0,4.0,49,0.00,,,0.00,,2013-05-01 03:43:00,
2013-04-30 22:53:00,71.0,52.0,29.85,SE,143,0.0,3.0,51,0.00,,,0.00,,2013-05-01 03:53:00,
2013-04-30 23:03:00,71.0,54.0,29.86,NE,41,0.0,4.0,54,0.00,,,0.00,,2013-05-01 04:03:00,
2013-04-30 23:12:00,71.0,54.0,29.86,NE,41,0.0,4.0,54,0.00,,,0.00,,2013-05-01 04:12:00,
2013-04-30 23:22:00,71.0,54.0,29.86,ESE,103,1.0,8.0,54,0.00,,,0.00,,2013-05-01 04:22:00,
2013-04-30 23:32:00,72.0,54.0,29.87,SW,220,2.0,6.0,53,0.00,,,0.00,,2013-05-01 04:32:00,
2013-04-30 23:42:00,72.0,54.0,29.87,SW,220,2.0,6.0,53,0.00,,,0.00,,2013-05-01 04:42:00,
2013-04-30 23:52:00,72.0,53.0,29.87,NE,54,0.0,8.0,52,0.00,,,0.00,,2013-05-01 04:52:00,